[[{"header":{"parameterUnit":"m.s-1","parameterCategory":1,"la1":30.2991,"la2":30.254,"lo1":-89.0895,"lo2":-89.0444,"dy":0.0017,"dx":0.0017,"nx":28,"ny":28,"refTime":"2026-01-29T03:00:00:Z","depth":0,"parameterNumber":2,"parameterNumberName":"U-component_of_WINDS"},"data":[0,0,0,0,0,0,0,0,0,0,0,0,0,0,0,0,0,0,0,0,0,0,0,0,0,0,0,0,0,0,0,0,0,0,0,0,0,0,0,0,0,0,0,0,0,0,0,0,0,0,0,0,0,0,0,0,0,0,-0.8425,-0.8425,0,-0.8448,-0.8448,-0.8448,-0.8476,-0.8476,-0.8477,-0.8477,-0.8499,-0.8499,-0.85,0,0,0,0,0,0,0,0,0,0,0,0,0,-0.8403,-0.8404,-0.8425,-0.8425,-0.8425,-0.8448,-0.8448,-0.8448,-0.8476,-0.8476,-0.8477,-0.8477,-0.8499,-0.8499,-0.85,0,0,0,0,0,0,0,0,0,0,0,0,0,-0.8418,-0.8404,-0.8425,-0.8442,-0.8444,-0.8448,-0.8448,-0.8448,-0.8475,-0.8476,-0.8477,-0.8477,-0.8499,-0.8499,-0.85,-0.8489,0,0,-0.85,-0.8501,0,0,0,0,0,0,0,0,-0.8417,-0.8419,-0.8439,-0.8441,-0.8443,-0.846,-0.8449,-0.8462,-0.8475,-0.8463,-0.8477,-0.8478,-0.8485,-0.8487,-0.849,-0.849,-0.8491,-0.85,-0.8501,-0.8501,-0.8501,0,0,0,0,0,0,0,-0.8416,-0.8418,-0.8434,-0.8439,-0.8441,-0.8448,-0.8451,-0.8451,-0.847,-0.8464,-0.8466,-0.8469,-0.8486,-0.8489,-0.849,-0.8491,-0.85,-0.8501,-0.8501,-0.8501,-0.8482,-0.8481,0,0,0,0,0,0,-0.8413,-0.8417,-0.8433,-0.8435,-0.8431,-0.8448,-0.8451,-0.8453,-0.847,-0.8474,-0.8468,-0.847,-0.8489,-0.849,-0.8491,-0.8479,-0.8501,-0.8501,-0.8501,-0.8483,-0.8482,-0.8481,0,0,0,0,0,0,-0.8412,-0.8414,-0.8432,-0.8426,-0.8429,-0.8447,-0.845,-0.8454,-0.8456,-0.8473,-0.8477,-0.8468,-0.8489,-0.8491,-0.8489,-0.848,-0.8501,-0.8501,-0.8483,-0.8482,-0.8481,-0.8454,0,0,0,0,0,0,-0.8411,-0.8414,-0.841,-0.8426,-0.8429,-0.843,-0.845,-0.8453,-0.8457,-0.8459,-0.8474,-0.8477,-0.849,-0.8488,-0.8489,-0.8481,-0.8502,-0.8484,-0.8483,-0.8482,-0.8456,-0.8452,-0.8449,0,0,0,0,0,-0.8411,-0.8401,-0.841,-0.8411,-0.8425,-0.8429,-0.8431,-0.8446,-0.8456,-0.8452,-0.8463,-0.8476,-0.8481,-0.8488,-0.8489,-0.8481,-0.8485,-0.8483,-0.8482,-0.8457,-0.8453,-0.8449,0,0,0,0,0,0,-0.8384,-0.8404,-0.8413,-0.8409,-0.8417,-0.8434,-0.843,-0.8441,-0.8447,-0.8449,-0.8467,-0.847,-0.8466,-0.8473,-0.8481,-0.847,-0.8485,-0.8483,-0.8466,-0.8462,-0.8458,-0.8457,-0.8502,0,0,0,0,0,-0.8377,-0.8379,-0.8397,-0.8391,-0.8395,-0.8411,-0.8414,-0.8425,-0.8434,-0.8437,-0.8448,-0.8456,-0.8459,-0.8461,-0.8465,-0.8457,-0.846,-0.8452,-0.8448,-0.8446,-0.8444,-0.844,-0.8436,-0.8476,-0.8476,-0.8476,0,0,-0.8364,-0.8375,-0.8375,-0.8386,-0.8394,-0.8395,-0.8414,-0.8415,-0.8415,-0.8437,-0.8436,-0.8444,-0.8454,-0.8449,-0.8447,-0.8455,-0.8434,-0.8444,-0.8441,-0.8441,-0.8438,-0.8434,-0.843,-0.8475,-0.8475,-0.8475,0,0,-0.834,-0.8349,-0.8345,-0.8352,-0.8364,-0.8375,-0.8374,-0.8389,-0.8395,-0.8394,-0.841,-0.8411,-0.8416,-0.8423,-0.8427,-0.8404,-0.8416,-0.8405,-0.8387,-0.8383,-0.838,-0.8377,-0.8368,-0.8365,-0.8403,-0.8403,-0.8403,0,-0.8322,-0.8325,-0.8342,-0.8341,-0.8345,-0.8365,-0.8361,-0.8367,-0.8379,-0.838,-0.8389,-0.8396,-0.8404,-0.84,-0.8394,-0.8397,-0.8396,-0.8403,-0.8379,-0.8376,-0.8374,-0.8366,-0.8363,-0.8402,-0.8402,-0.8402,-0.8402,0,-0.8302,-0.8303,-0.8298,-0.8309,-0.8313,-0.831,-0.8326,-0.8327,-0.8338,-0.8348,-0.8346,-0.8357,-0.8363,-0.8363,-0.8373,-0.836,-0.8364,-0.8376,-0.839,-0.8368,-0.8361,-0.8358,-0.84,-0.84,-0.8401,-0.8401,0,0,-0.8262,-0.8282,-0.828,-0.8284,-0.8298,-0.8299,-0.8297,-0.8303,-0.8304,-0.8311,-0.8309,-0.8313,-0.8323,-0.8328,-0.8339,-0.8335,-0.8316,-0.8347,-0.8347,-0.834,-0.8301,-0.8292,-0.8288,-0.8324,-0.8323,-0.8323,-0.83,0,-0.824,-0.8238,-0.8253,-0.8247,-0.8248,-0.8267,-0.8265,-0.8272,-0.8281,-0.8283,-0.8293,-0.8295,-0.8309,-0.8312,-0.8309,-0.8319,-0.8308,-0.8321,-0.8322,-0.8322,-0.8318,-0.8285,-0.8275,-0.8253,-0.8297,-0.8297,-0.8296,0,-0.8215,-0.822,-0.8214,-0.8227,-0.8228,-0.8227,-0.8233,-0.8235,-0.8244,-0.825,-0.8255,-0.8268,-0.8266,-0.828,-0.8278,-0.8286,-0.8287,-0.8292,-0.8292,-0.8292,-0.8307,-0.8283,-0.8247,-0.8243,-0.8292,-0.8293,-0.8293,0,-0.8185,-0.8192,-0.8189,-0.8192,-0.8208,-0.8206,-0.8212,-0.8222,-0.8224,-0.8229,-0.8231,-0.8236,-0.8239,-0.8242,-0.8255,-0.8265,-0.8251,-0.8267,-0.8256,-0.8256,-0.8252,-0.8252,-0.8214,-0.8254,-0.8254,-0.8254,-0.8254,0,-0.8159,-0.8155,-0.8175,-0.8174,-0.8169,-0.8185,-0.818,-0.8188,-0.8196,-0.8196,-0.8212,-0.8211,-0.8229,-0.823,-0.8241,-0.8237,-0.8238,-0.8243,-0.8245,-0.8241,-0.824,-0.8242,-0.8244,-0.8253,-0.8253,-0.8253,-0.8253,0,-0.8126,-0.814,-0.8137,-0.8152,-0.8156,-0.8151,-0.8164,-0.8162,-0.8172,-0.8171,-0.8172,-0.8187,-0.8189,-0.8203,-0.8208,-0.8215,-0.8206,-0.8212,-0.8203,-0.8205,-0.8193,-0.8194,-0.8155,-0.815,-0.8193,-0.8193,-0.8192,0,-0.8108,-0.8105,-0.8119,-0.812,-0.8125,-0.8127,-0.8129,-0.8145,-0.8147,-0.8156,-0.8153,-0.8157,-0.816,-0.8162,-0.8173,-0.8177,-0.8183,-0.8169,-0.8183,-0.8179,-0.8182,-0.8182,-0.8181,-0.8166,-0.8165,-0.8165,-0.8164,0,-0.8075,-0.8082,-0.8085,-0.809,-0.8092,-0.8097,-0.8103,-0.8103,-0.812,-0.8121,-0.8123,-0.8126,-0.8131,-0.8133,-0.8139,-0.8145,-0.8157,-0.816,-0.8157,-0.8152,-0.8147,-0.8149,-0.8194,-0.816,-0.8161,-0.8161,-0.8161,-0.8161,-0.8049,-0.8046,-0.8056,-0.8058,-0.8064,-0.8069,-0.8068,-0.8077,-0.808,-0.8085,-0.8094,-0.8095,-0.8103,-0.8111,-0.8116,-0.8117,-0.8124,-0.8121,-0.812,-0.8118,-0.8116,-0.8147,-0.8118,-0.8118,-0.8118,-0.8118,-0.8118,0,-0.8016,-0.8023,-0.8025,-0.8032,-0.8034,-0.8045,-0.8052,-0.8053,-0.8053,-0.806,-0.8063,-0.8064,-0.8067,-0.8078,-0.8082,-0.808,-0.8085,-0.808,-0.808,-0.8081,-0.8109,-0.8111,-0.8075,-0.8075,-0.8075,-0.8075,-0.8075,-0.8075,-0.7999,-0.7995,-0.8003,-0.8002,-0.8009,-0.801,-0.8013,-0.8017,-0.8022,-0.8024,-0.8026,-0.8033,-0.8041,-0.8045,-0.8048,-0.8051,-0.8051,-0.8044,-0.8049,-0.8075,-0.8079,-0.8083,-0.8085,-0.8044,-0.8044,-0.8021,-0.802,-0.802]},{"header":{"parameterUnit":"m.s-1","parameterCategory":1,"la1":30.2991,"la2":30.254,"lo1":-89.0895,"lo2":-89.0444,"dy":0.0017,"dx":0.0017,"nx":28,"ny":28,"refTime":"2026-01-29T03:00:00:Z","depth":0,"parameterNumber":3,"parameterNumberName":"V-component_of_WINDS"},"data":[0,0,0,0,0,0,0,0,0,0,0,0,0,0,0,0,0,0,0,0,0,0,0,0,0,0,0,0,0,0,0,0,0,0,0,0,0,0,0,0,0,0,0,0,0,0,0,0,0,0,0,0,0,0,0,0,0,0,1.8016,1.8016,0,1.8001,1.8,1.8,1.7934,1.7933,1.7931,1.793,1.7915,1.7916,1.7917,0,0,0,0,0,0,0,0,0,0,0,0,0,1.799,1.7991,1.8016,1.8016,1.8016,1.8001,1.8,1.8,1.7934,1.7933,1.7931,1.7929,1.7914,1.7916,1.7917,0,0,0,0,0,0,0,0,0,0,0,0,0,1.7991,1.7991,1.8016,1.7981,1.7978,1.8001,1.8,1.8,1.7935,1.7933,1.793,1.7928,1.7914,1.7915,1.7917,1.7973,0,0,1.7922,1.7922,0,0,0,0,0,0,0,0,1.7991,1.7992,1.7986,1.7983,1.798,1.7967,1.7986,1.7991,1.7935,1.7951,1.793,1.7927,1.7934,1.7934,1.7936,1.7972,1.7971,1.7922,1.7923,1.7924,1.7924,0,0,0,0,0,0,0,1.7991,1.7992,1.801,1.7986,1.7982,1.7966,1.7964,1.7986,1.7956,1.795,1.7945,1.7944,1.7932,1.7935,1.7935,1.7971,1.7922,1.7923,1.7924,1.7925,1.8053,1.8055,0,0,0,0,0,0,1.7995,1.7992,1.801,1.8009,1.798,1.7969,1.7966,1.7973,1.7955,1.795,1.7946,1.7941,1.7933,1.7933,1.7934,1.7998,1.7924,1.7925,1.7926,1.805,1.8053,1.8056,0,0,0,0,0,0,1.7995,1.7998,1.8011,1.8,1.8,1.7972,1.798,1.7974,1.7977,1.7952,1.7947,1.7954,1.7931,1.7932,1.7964,1.7997,1.7926,1.7927,1.8047,1.8051,1.8055,1.8127,0,0,0,0,0,0,1.7995,1.7998,1.8018,1.8,1.8001,1.804,1.7983,1.7976,1.798,1.7973,1.7959,1.7954,1.793,1.7962,1.7965,1.7998,1.7928,1.8044,1.8049,1.8053,1.8122,1.8133,1.8143,0,0,0,0,0,1.7994,1.804,1.802,1.8022,1.8026,1.8042,1.8043,1.8013,1.7983,1.8003,1.7988,1.7955,1.7993,1.7966,1.7969,1.8003,1.8042,1.8048,1.8053,1.8117,1.8131,1.8143,0,0,0,0,0,0,1.8062,1.8037,1.8014,1.8056,1.8052,1.8031,1.8056,1.8029,1.8033,1.8027,1.799,1.7988,1.8025,1.8017,1.7987,1.8056,1.8012,1.8018,1.806,1.8072,1.8083,1.8084,1.793,0,0,0,0,0,1.8082,1.8098,1.8074,1.8113,1.8112,1.8085,1.8091,1.8069,1.8063,1.8061,1.8048,1.8044,1.8055,1.8063,1.8072,1.8121,1.8117,1.8145,1.8156,1.8165,1.8171,1.8196,1.8209,1.8074,1.8074,1.8074,0,0,1.8124,1.8111,1.8123,1.8127,1.8121,1.8138,1.8084,1.8104,1.8116,1.8064,1.8093,1.8084,1.8077,1.8117,1.8134,1.8112,1.8207,1.8172,1.8179,1.818,1.8203,1.8216,1.8227,1.8078,1.8077,1.8077,0,0,1.8207,1.82,1.8231,1.8227,1.8219,1.82,1.8208,1.8192,1.8184,1.8212,1.8173,1.8188,1.8208,1.8205,1.8206,1.829,1.826,1.8294,1.8348,1.8373,1.8384,1.8393,1.8423,1.8435,1.83,1.83,1.83,0,1.826,1.8283,1.8251,1.8274,1.8276,1.823,1.8262,1.8259,1.8255,1.8258,1.8233,1.8257,1.825,1.8289,1.831,1.8312,1.832,1.8295,1.8385,1.8394,1.8402,1.843,1.8442,1.8304,1.8304,1.8303,1.8303,0,1.8348,1.8365,1.8392,1.8389,1.8394,1.8422,1.8394,1.8404,1.8381,1.8366,1.8396,1.8385,1.8391,1.8399,1.8377,1.8435,1.8422,1.8392,1.8347,1.842,1.8446,1.8456,1.831,1.8309,1.8308,1.8307,0,0,1.8474,1.8453,1.8463,1.8461,1.845,1.8463,1.8488,1.8494,1.8503,1.8502,1.8523,1.8541,1.8514,1.8515,1.8493,1.8515,1.8582,1.8482,1.8481,1.8501,1.8646,1.8669,1.8682,1.8562,1.8564,1.8566,1.8647,0,1.8554,1.8596,1.8568,1.8615,1.863,1.8587,1.8609,1.8605,1.8591,1.8603,1.8588,1.8602,1.8564,1.8565,1.8585,1.857,1.8611,1.8564,1.8582,1.8583,1.8584,1.8695,1.8719,1.8796,1.8657,1.8658,1.8659,0,1.8652,1.8656,1.8704,1.869,1.8695,1.8716,1.8719,1.8731,1.8725,1.8714,1.8716,1.8688,1.8713,1.8669,1.8703,1.8671,1.8677,1.8671,1.8673,1.8674,1.8625,1.8699,1.882,1.8831,1.8675,1.8674,1.8673,0,1.8739,1.8756,1.8787,1.8787,1.8771,1.8786,1.8781,1.8773,1.8778,1.8782,1.8785,1.8791,1.8795,1.88,1.8775,1.8746,1.8812,1.8766,1.8804,1.8805,1.882,1.8819,1.8943,1.8824,1.8824,1.8824,1.8823,0,1.8831,1.8863,1.8826,1.8845,1.8879,1.8847,1.8882,1.8871,1.8865,1.8882,1.8845,1.8861,1.8827,1.8841,1.8821,1.8852,1.8854,1.8846,1.884,1.8849,1.885,1.8852,1.8846,1.8827,1.8826,1.8825,1.8825,0,1.8934,1.8911,1.8942,1.8924,1.8921,1.8947,1.8932,1.8949,1.8933,1.8955,1.8958,1.8934,1.8948,1.8923,1.8934,1.8921,1.8965,1.8951,1.8967,1.8962,1.9001,1.8998,1.9131,1.9147,1.9018,1.9019,1.902,0,1.8994,1.9017,1.9002,1.9011,1.9007,1.9021,1.9027,1.8996,1.9004,1.9,1.9018,1.9028,1.9035,1.906,1.9043,1.9052,1.9038,1.9084,1.9039,1.9047,1.9038,1.9037,1.904,1.9093,1.9094,1.9096,1.9097,0,1.9103,1.9091,1.91,1.9106,1.9113,1.9116,1.9116,1.9126,1.9093,1.9104,1.9117,1.9123,1.9134,1.9145,1.915,1.9144,1.9116,1.9111,1.912,1.9129,1.9137,1.9134,1.8992,1.9108,1.9107,1.9106,1.9106,1.9105,1.9186,1.9205,1.9198,1.9209,1.9207,1.9208,1.9223,1.921,1.922,1.9227,1.9209,1.9227,1.9221,1.9224,1.9222,1.9236,1.9216,1.9229,1.9232,1.9236,1.9242,1.9136,1.9237,1.9236,1.9236,1.9236,1.9236,0,1.9294,1.9287,1.9298,1.93,1.9309,1.9281,1.928,1.929,1.9307,1.9304,1.9312,1.9328,1.9339,1.9323,1.9332,1.9346,1.9333,1.935,1.9348,1.9347,1.926,1.9251,1.936,1.936,1.936,1.936,1.936,1.936,1.9351,1.9381,1.9368,1.9396,1.9389,1.9407,1.9409,1.941,1.9407,1.9427,1.9436,1.9426,1.9418,1.9426,1.9435,1.9431,1.9435,1.9456,1.9447,1.9366,1.9353,1.9342,1.9333,1.9458,1.9458,1.9533,1.9534,1.9535]}]]